Time,TemperatureF,DewpointF,PressureIn,WindDirection,WindDirectionDegrees,WindSpeedMPH,WindSpeedGustMPH,Humidity,HourlyPrecipIn,Conditions,Clouds,dailyrainin,SoftwareType,DateUTC
2013-06-16 00:12:00,80.5,70.7,30.07,WNW,303,0.0,1.0,72,0.00,,OVC250,0.00,VWS V14.01,2013-06-16 05:12:00,
2013-06-16 00:22:00,80.5,70.7,30.08,WNW,303,0.0,2.0,72,0.00,,OVC250,0.00,VWS V14.01,2013-06-16 05:22:00,
2013-06-16 00:32:00,80.3,70.5,30.08,WNW,303,0.0,0.0,72,0.00,,OVC250,0.00,VWS V14.01,2013-06-16 05:32:00,
2013-06-16 00:42:00,80.1,70.7,30.08,WNW,303,0.0,1.0,73,0.00,,OVC250,0.00,VWS V14.01,2013-06-16 05:42:00,
2013-06-16 00:52:00,79.8,70.8,30.08,West,280,0.0,1.0,74,0.00,,OVC250,0.00,VWS V14.01,2013-06-16 05:52:00,
2013-06-16 01:02:00,79.4,70.8,30.08,WNW,286,0.0,0.0,75,0.00,,OVC250,0.00,VWS V14.01,2013-06-16 06:02:00,
2013-06-16 01:12:00,79.2,71.0,30.08,NW,313,0.0,2.0,76,0.00,,OVC250,0.00,VWS V14.01,2013-06-16 06:12:00,
2013-06-16 01:22:00,79.0,71.2,30.08,WNW,286,0.0,2.0,77,0.00,,OVC250,0.00,VWS V14.01,2013-06-16 06:22:00,
2013-06-16 01:32:00,78.8,71.0,30.07,West,281,0.0,1.0,77,0.00,,OVC250,0.00,VWS V14.01,2013-06-16 06:32:00,
2013-06-16 01:42:00,78.5,71.1,30.07,West,281,0.0,0.0,78,0.00,,OVC250,0.00,VWS V14.01,2013-06-16 06:42:00,
2013-06-16 01:52:00,78.3,71.3,30.07,WNW,285,0.0,1.0,79,0.00,,OVC250,0.00,VWS V14.01,2013-06-16 06:52:00,
2013-06-16 02:02:00,77.9,71.2,30.07,WNW,285,0.0,2.0,80,0.00,,OVC250,0.00,VWS V14.01,2013-06-16 07:02:00,
2013-06-16 02:12:00,77.7,71.4,30.07,WNW,285,0.0,1.0,81,0.00,,OVC250,0.00,VWS V14.01,2013-06-16 07:12:00,
2013-06-16 02:22:00,77.6,71.3,30.07,WNW,288,0.0,2.0,81,0.00,,OVC250,0.00,VWS V14.01,2013-06-16 07:22:00,
2013-06-16 02:32:00,77.4,71.5,30.07,WNW,288,0.0,1.0,82,0.00,,OVC250,0.00,VWS V14.01,2013-06-16 07:32:00,
2013-06-16 02:42:00,77.0,71.4,30.07,WNW,288,0.0,0.0,83,0.00,,OVC250,0.00,VWS V14.01,2013-06-16 07:42:00,
2013-06-16 02:52:00,76.8,71.2,30.08,WNW,288,0.0,1.0,83,0.00,,OVC250,0.00,VWS V14.01,2013-06-16 07:52:00,
2013-06-16 03:02:00,76.8,71.6,30.07,WNW,288,0.0,0.0,84,0.00,,OVC250,0.00,VWS V14.01,2013-06-16 08:02:00,
2013-06-16 03:12:00,76.7,71.5,30.07,WNW,288,0.0,2.0,84,0.00,,OVC250,0.00,VWS V14.01,2013-06-16 08:12:00,
2013-06-16 03:22:00,76.7,71.9,30.07,WNW,288,0.0,2.0,85,0.00,,OVC250,0.00,VWS V14.01,2013-06-16 08:22:00,
2013-06-16 03:32:00,76.7,71.9,30.07,WNW,288,0.0,1.0,85,0.00,,OVC250,0.00,VWS V14.01,2013-06-16 08:32:00,
2013-06-16 03:42:00,76.5,72.0,30.07,WNW,289,0.0,1.0,86,0.00,,OVC250,0.00,VWS V14.01,2013-06-16 08:42:00,
2013-06-16 03:52:00,76.7,71.9,30.07,WNW,289,0.0,1.0,85,0.00,,OVC250,0.00,VWS V14.01,2013-06-16 08:52:00,
2013-06-16 04:02:00,76.7,71.9,30.07,WNW,289,0.0,2.0,85,0.00,,OVC250,0.00,VWS V14.01,2013-06-16 09:02:00,
2013-06-16 04:12:00,76.7,71.9,30.07,NW,326,0.0,2.0,85,0.00,,OVC250,0.00,VWS V14.01,2013-06-16 09:12:00,
2013-06-16 04:22:00,76.8,71.9,30.07,NW,326,0.0,0.0,85,0.00,,OVC250,0.00,VWS V14.01,2013-06-16 09:22:00,
2013-06-16 04:32:00,76.8,71.9,30.07,NW,326,0.0,1.0,85,0.00,,OVC250,0.00,VWS V14.01,2013-06-16 09:32:00,
2013-06-16 04:42:00,76.7,71.9,30.07,NNW,327,0.0,1.0,85,0.00,,OVC250,0.00,VWS V14.01,2013-06-16 09:42:00,
2013-06-16 04:52:00,76.7,71.9,30.08,NNW,327,0.0,1.0,85,0.00,,OVC250,0.00,VWS V14.01,2013-06-16 09:52:00,
2013-06-16 05:02:00,76.5,71.7,30.08,NNW,329,0.0,1.0,85,0.00,,OVC250,0.00,VWS V14.01,2013-06-16 10:02:00,
2013-06-16 05:12:00,76.5,71.7,30.08,NNW,329,0.0,1.0,85,0.00,,OVC250,0.00,VWS V14.01,2013-06-16 10:12:00,
2013-06-16 05:22:00,76.3,71.5,30.09,NNW,329,0.0,1.0,85,0.00,,OVC250,0.00,VWS V14.01,2013-06-16 10:22:00,
2013-06-16 05:32:00,76.3,71.8,30.08,NNW,329,0.0,1.0,86,0.00,,OVC250,0.00,VWS V14.01,2013-06-16 10:32:00,
2013-06-16 05:42:00,76.1,71.6,30.08,NNW,329,0.0,1.0,86,0.00,,OVC250,0.00,VWS V14.01,2013-06-16 10:42:00,
2013-06-16 05:52:00,76.0,71.5,30.09,NNW,329,0.0,0.0,86,0.00,,OVC250,0.00,VWS V14.01,2013-06-16 10:52:00,
2013-06-16 06:02:00,75.8,71.7,30.09,NNW,329,0.0,0.0,87,0.00,,SCT018,0.00,VWS V14.01,2013-06-16 11:02:00,
2013-06-16 06:12:00,75.6,71.5,30.09,NNW,331,0.0,1.0,87,0.00,,SCT018,0.00,VWS V14.01,2013-06-16 11:12:00,
2013-06-16 06:22:00,75.4,71.6,30.09,NNW,331,0.0,1.0,88,0.00,,SCT018,0.00,VWS V14.01,2013-06-16 11:22:00,
2013-06-16 06:32:00,75.1,71.3,30.10,NNW,331,0.0,0.0,88,0.00,,SCT018,0.00,VWS V14.01,2013-06-16 11:32:00,
2013-06-16 06:42:00,75.1,71.6,30.10,NNW,331,0.0,0.0,89,0.00,,SCT018,0.00,VWS V14.01,2013-06-16 11:42:00,
2013-06-16 06:52:00,74.9,71.4,30.10,NNW,331,0.0,0.0,89,0.00,,SCT018,0.00,VWS V14.01,2013-06-16 11:52:00,
2013-06-16 07:02:00,74.9,71.8,30.10,NNW,331,0.0,0.0,90,0.00,,SCT018,0.00,VWS V14.01,2013-06-16 12:02:00,
2013-06-16 07:12:00,74.9,71.8,30.10,NNW,331,0.0,0.0,90,0.00,,SCT018,0.00,VWS V14.01,2013-06-16 12:12:00,
2013-06-16 07:22:00,75.1,72.0,30.11,NNW,331,0.0,0.0,90,0.00,,SCT018,0.00,VWS V14.01,2013-06-16 12:22:00,
2013-06-16 07:32:00,75.3,72.2,30.11,NNW,331,0.0,1.0,90,0.00,,SCT018,0.00,VWS V14.01,2013-06-16 12:32:00,
2013-06-16 07:42:00,75.4,71.9,30.11,NNW,331,0.0,1.0,89,0.00,,SCT018,0.00,VWS V14.01,2013-06-16 12:42:00,
2013-06-16 07:52:00,75.6,71.8,30.11,NNW,331,0.0,1.0,88,0.00,,SCT018,0.00,VWS V14.01,2013-06-16 12:52:00,
2013-06-16 08:02:00,76.1,72.3,30.12,NNW,331,0.0,1.0,88,0.00,,SCT018,0.00,VWS V14.01,2013-06-16 13:02:00,
2013-06-16 08:12:00,76.5,72.3,30.12,NNW,331,0.0,1.0,87,0.00,,SCT018,0.00,VWS V14.01,2013-06-16 13:12:00,
2013-06-16 08:22:00,76.8,72.3,30.12,NNW,331,0.0,1.0,86,0.00,,SCT018,0.00,VWS V14.01,2013-06-16 13:22:00,
2013-06-16 08:32:00,77.4,72.2,30.13,NNW,330,0.0,2.0,84,0.00,,SCT018,0.00,VWS V14.01,2013-06-16 13:32:00,
2013-06-16 08:42:00,78.1,71.8,30.13,NNW,330,0.0,2.0,81,0.00,,SCT018,0.00,VWS V14.01,2013-06-16 13:42:00,
2013-06-16 08:52:00,77.9,71.2,30.13,NNW,329,0.0,2.0,80,0.00,,SCT018,0.00,VWS V14.01,2013-06-16 13:52:00,
2013-06-16 09:02:00,78.1,71.4,30.14,NNW,329,0.0,1.0,80,0.00,,SCT018,0.00,VWS V14.01,2013-06-16 14:02:00,
2013-06-16 09:12:00,78.8,71.0,30.14,NNW,329,0.0,1.0,77,0.00,,SCT018,0.00,VWS V14.01,2013-06-16 14:12:00,
2013-06-16 09:22:00,79.6,70.6,30.15,NNW,329,0.0,1.0,74,0.00,,SCT018,0.00,VWS V14.01,2013-06-16 14:22:00,
2013-06-16 09:32:00,80.1,71.1,30.15,NNW,329,0.0,1.0,74,0.00,,SCT018,0.00,VWS V14.01,2013-06-16 14:32:00,
2013-06-16 09:42:00,80.7,70.0,30.15,NNW,328,0.0,2.0,70,0.00,,SCT018,0.00,VWS V14.01,2013-06-16 14:42:00,
2013-06-16 09:52:00,81.2,70.9,30.15,NNW,328,0.0,1.0,71,0.00,,SCT018,0.00,VWS V14.01,2013-06-16 14:52:00,
2013-06-16 10:02:00,82.0,70.8,30.15,NNW,327,0.0,3.0,69,0.00,,SCT018,0.00,VWS V14.01,2013-06-16 15:02:00,
2013-06-16 10:12:00,82.4,71.2,30.15,NNW,327,0.0,2.0,69,0.00,,SCT018,0.00,VWS V14.01,2013-06-16 15:12:00,
2013-06-16 10:22:00,83.0,70.9,30.14,NNW,327,0.0,1.0,67,0.00,,SCT018,0.00,VWS V14.01,2013-06-16 15:22:00,
2013-06-16 10:32:00,83.2,69.3,30.14,NW,314,0.0,3.0,63,0.00,,SCT018,0.00,VWS V14.01,2013-06-16 15:32:00,
2013-06-16 10:42:00,83.8,69.9,30.14,NW,323,0.0,3.0,63,0.00,,SCT018,0.00,VWS V14.01,2013-06-16 15:42:00,
2013-06-16 10:52:00,84.0,69.6,30.14,WNW,294,0.0,2.0,62,0.00,,SCT018,0.00,VWS V14.01,2013-06-16 15:52:00,
2013-06-16 11:02:00,84.5,69.6,30.14,NNE,32,0.0,3.0,61,0.00,,SCT018,0.00,VWS V14.01,2013-06-16 16:02:00,
2013-06-16 11:12:00,84.9,70.4,30.14,NNE,30,0.0,1.0,62,0.00,,SCT018,0.00,VWS V14.01,2013-06-16 16:12:00,
2013-06-16 11:22:00,85.3,69.8,30.14,NNW,338,0.0,4.0,60,0.00,,SCT018,0.00,VWS V14.01,2013-06-16 16:22:00,
2013-06-16 11:32:00,85.9,71.4,30.14,NW,306,1.0,4.0,62,0.00,,SCT018,0.00,VWS V14.01,2013-06-16 16:32:00,
2013-06-16 11:42:00,87.0,69.9,30.14,NNW,342,0.0,2.0,57,0.00,,SCT018,0.00,VWS V14.01,2013-06-16 16:42:00,
2013-06-16 11:52:00,87.6,70.5,30.14,NNW,335,0.0,2.0,57,0.00,,SCT018,0.00,VWS V14.01,2013-06-16 16:52:00,
2013-06-16 12:02:00,87.6,70.5,30.13,ENE,65,0.0,1.0,57,0.00,,BKN040,0.00,VWS V14.01,2013-06-16 17:02:00,
2013-06-16 12:12:00,88.2,69.5,30.13,WNW,295,0.0,3.0,54,0.00,,BKN040,0.00,VWS V14.01,2013-06-16 17:12:00,
2013-06-16 12:22:00,88.2,70.0,30.13,WNW,296,0.0,3.0,55,0.00,,BKN040,0.00,VWS V14.01,2013-06-16 17:22:00,
2013-06-16 12:32:00,88.4,70.7,30.14,West,269,0.0,2.0,56,0.00,,BKN040,0.00,VWS V14.01,2013-06-16 17:32:00,
2013-06-16 12:42:00,88.4,68.6,30.14,NNW,342,0.0,3.0,52,0.00,,BKN040,0.00,VWS V14.01,2013-06-16 17:42:00,
2013-06-16 12:52:00,88.8,68.9,30.14,West,270,0.0,1.0,52,0.00,,BKN040,0.00,VWS V14.01,2013-06-16 17:52:00,
2013-06-16 13:02:00,88.8,68.4,30.13,West,263,0.0,4.0,51,0.00,,BKN040,0.00,VWS V14.01,2013-06-16 18:02:00,
2013-06-16 13:12:00,89.5,67.8,30.13,SSW,212,1.0,4.0,49,0.00,,BKN040,0.00,VWS V14.01,2013-06-16 18:12:00,
2013-06-16 13:22:00,90.3,68.6,30.12,NNE,15,0.0,2.0,49,0.00,,BKN040,0.00,VWS V14.01,2013-06-16 18:22:00,
2013-06-16 13:32:00,91.4,73.0,30.11,NNE,17,0.0,2.0,55,0.00,,BKN040,0.00,VWS V14.01,2013-06-16 18:32:00,
2013-06-16 13:42:00,91.4,71.3,30.11,North,351,0.0,2.0,52,0.00,,BKN040,0.00,VWS V14.01,2013-06-16 18:42:00,
2013-06-16 13:52:00,92.3,69.2,30.11,NNW,348,0.0,1.0,47,0.00,,BKN040,0.00,VWS V14.01,2013-06-16 18:52:00,
2013-06-16 14:02:00,92.1,69.6,30.11,WSW,256,0.0,3.0,48,0.00,,BKN040,0.00,VWS V14.01,2013-06-16 19:02:00,
2013-06-16 14:12:00,92.7,68.9,30.11,West,268,0.0,1.0,46,0.00,,BKN040,0.00,VWS V14.01,2013-06-16 19:12:00,
2013-06-16 14:22:00,93.2,68.7,30.10,NW,317,0.0,2.0,45,0.00,,BKN040,0.00,VWS V14.01,2013-06-16 19:22:00,
2013-06-16 14:32:00,91.6,69.8,30.09,WNW,286,0.0,3.0,49,0.00,,BKN040,0.00,VWS V14.01,2013-06-16 19:32:00,
2013-06-16 14:42:00,93.2,70.0,30.09,WNW,297,0.0,4.0,47,0.00,,BKN040,0.00,VWS V14.01,2013-06-16 19:42:00,
2013-06-16 14:52:00,92.5,67.4,30.08,WNW,292,1.0,3.0,44,0.00,,BKN040,0.00,VWS V14.01,2013-06-16 19:52:00,
2013-06-16 15:02:00,93.4,69.5,30.08,NE,34,0.0,3.0,46,0.00,,BKN040,0.00,VWS V14.01,2013-06-16 20:02:00,
2013-06-16 15:12:00,93.2,68.7,30.08,SSW,211,0.0,3.0,45,0.00,,BKN040,0.00,VWS V14.01,2013-06-16 20:12:00,
2013-06-16 15:22:00,94.5,67.2,30.08,SW,217,0.0,3.0,41,0.00,,BKN040,0.00,VWS V14.01,2013-06-16 20:22:00,
2013-06-16 15:32:00,95.1,67.0,30.07,SW,218,0.0,1.0,40,0.00,,BKN040,0.00,VWS V14.01,2013-06-16 20:32:00,
2013-06-16 15:42:00,94.7,68.7,30.07,North,11,0.0,4.0,43,0.00,,BKN040,0.00,VWS V14.01,2013-06-16 20:42:00,
2013-06-16 15:52:00,94.3,68.4,30.07,NNE,13,0.0,2.0,43,0.00,,BKN040,0.00,VWS V14.01,2013-06-16 20:52:00,
2013-06-16 16:02:00,94.5,68.6,30.06,NNE,16,0.0,2.0,43,0.00,,BKN040,0.00,VWS V14.01,2013-06-16 21:02:00,
2013-06-16 16:12:00,94.7,66.6,30.06,NNW,347,0.0,1.0,40,0.00,,BKN040,0.00,VWS V14.01,2013-06-16 21:12:00,
2013-06-16 16:22:00,93.6,67.1,30.05,NW,315,0.0,3.0,42,0.00,,BKN040,0.00,VWS V14.01,2013-06-16 21:22:00,
2013-06-16 16:32:00,93.4,66.2,30.05,NW,315,1.0,1.0,41,0.00,,BKN040,0.00,VWS V14.01,2013-06-16 21:32:00,
2013-06-16 16:42:00,94.0,66.7,30.05,NNE,21,0.0,6.0,41,0.00,,BKN040,0.00,VWS V14.01,2013-06-16 21:42:00,
2013-06-16 16:52:00,92.9,67.1,30.05,NE,36,0.0,3.0,43,0.00,,BKN040,0.00,VWS V14.01,2013-06-16 21:52:00,
2013-06-16 17:02:00,92.9,65.0,30.04,North,5,0.0,1.0,40,0.00,,BKN040,0.00,VWS V14.01,2013-06-16 22:02:00,
2013-06-16 17:12:00,92.9,64.3,30.04,North,5,0.0,1.0,39,0.00,,BKN040,0.00,VWS V14.01,2013-06-16 22:12:00,
2013-06-16 17:22:00,93.2,65.3,30.04,North,360,0.0,2.0,40,0.00,,BKN040,0.00,VWS V14.01,2013-06-16 22:22:00,
2013-06-16 17:32:00,92.9,64.3,30.03,NNW,334,0.0,2.0,39,0.00,,BKN040,0.00,VWS V14.01,2013-06-16 22:32:00,
2013-06-16 17:42:00,92.9,65.8,30.03,NNW,334,1.0,1.0,41,0.00,,BKN040,0.00,VWS V14.01,2013-06-16 22:42:00,
2013-06-16 17:52:00,92.9,65.8,30.03,NNW,334,0.0,1.0,41,0.00,,BKN040,0.00,VWS V14.01,2013-06-16 22:52:00,
2013-06-16 18:02:00,93.4,66.9,30.02,NNW,334,0.0,1.0,42,0.00,,FEW070,0.00,VWS V14.01,2013-06-16 23:02:00,
2013-06-16 18:12:00,93.6,65.7,30.02,NNW,348,0.0,1.0,40,0.00,,FEW070,0.00,VWS V14.01,2013-06-16 23:12:00,
2013-06-16 18:22:00,93.6,67.1,30.02,North,349,0.0,1.0,42,0.00,,FEW070,0.00,VWS V14.01,2013-06-16 23:22:00,
2013-06-16 18:32:00,93.2,66.0,30.02,North,349,0.0,0.0,41,0.00,,FEW070,0.00,VWS V14.01,2013-06-16 23:32:00,
2013-06-16 18:42:00,93.4,66.2,30.02,North,349,0.0,0.0,41,0.00,,FEW070,0.00,VWS V14.01,2013-06-16 23:42:00,
2013-06-16 18:52:00,93.2,66.7,30.02,North,349,0.0,1.0,42,0.00,,FEW070,0.00,VWS V14.01,2013-06-16 23:52:00,
2013-06-16 19:02:00,92.3,66.6,30.02,North,349,0.0,1.0,43,0.00,,FEW070,0.00,VWS V14.01,2013-06-17 00:02:00,
2013-06-16 19:12:00,91.8,66.1,30.02,North,349,0.0,1.0,43,0.00,,FEW070,0.00,VWS V14.01,2013-06-17 00:12:00,
2013-06-16 19:22:00,91.6,66.6,30.01,North,349,0.0,0.0,44,0.00,,FEW070,0.00,VWS V14.01,2013-06-17 00:22:00,
2013-06-16 19:32:00,91.2,66.3,30.02,North,349,0.0,1.0,44,0.00,,FEW070,0.00,VWS V14.01,2013-06-17 00:32:00,
2013-06-16 19:42:00,90.5,66.3,30.02,NNE,31,1.0,2.0,45,0.00,,FEW070,0.00,VWS V14.01,2013-06-17 00:42:00,
2013-06-16 19:52:00,90.1,66.6,30.01,NNE,28,0.0,1.0,46,0.00,,FEW070,0.00,VWS V14.01,2013-06-17 00:52:00,
2013-06-16 20:02:00,89.7,66.2,30.01,NNE,27,0.0,1.0,46,0.00,,FEW070,0.00,VWS V14.01,2013-06-17 01:02:00,
2013-06-16 20:12:00,89.3,65.8,30.01,NNE,27,0.0,1.0,46,0.00,,FEW070,0.00,VWS V14.01,2013-06-17 01:12:00,
2013-06-16 20:22:00,88.8,66.0,30.01,NNE,27,0.0,1.0,47,0.00,,FEW070,0.00,VWS V14.01,2013-06-17 01:22:00,
2013-06-16 20:32:00,88.6,66.4,30.01,NNE,27,0.0,0.0,48,0.00,,FEW070,0.00,VWS V14.01,2013-06-17 01:32:00,
2013-06-16 20:42:00,88.2,66.7,30.01,NNE,27,0.0,0.0,49,0.00,,FEW070,0.00,VWS V14.01,2013-06-17 01:42:00,
2013-06-16 20:52:00,87.8,67.4,30.02,NNE,27,0.0,0.0,51,0.00,,FEW070,0.00,VWS V14.01,2013-06-17 01:52:00,
2013-06-16 21:02:00,87.0,67.3,30.02,NNE,27,0.0,0.0,52,0.00,,FEW070,0.00,VWS V14.01,2013-06-17 02:02:00,
2013-06-16 21:12:00,86.3,67.7,30.02,NNE,27,0.0,0.0,54,0.00,,FEW070,0.00,VWS V14.01,2013-06-17 02:12:00,
2013-06-16 21:22:00,85.9,67.9,30.02,NNE,27,0.0,0.0,55,0.00,,FEW070,0.00,VWS V14.01,2013-06-17 02:22:00,
2013-06-16 21:32:00,85.3,67.8,30.03,NNE,27,0.0,0.0,56,0.00,,FEW070,0.00,VWS V14.01,2013-06-17 02:32:00,
2013-06-16 21:42:00,85.1,68.2,30.03,NNE,27,0.0,1.0,57,0.00,,FEW070,0.00,VWS V14.01,2013-06-17 02:42:00,
2013-06-16 21:52:00,85.5,68.5,30.04,NNE,27,0.0,1.0,57,0.00,,FEW070,0.00,VWS V14.01,2013-06-17 02:52:00,
2013-06-16 22:02:00,85.7,69.7,30.04,WNW,298,0.0,3.0,59,0.00,,FEW070,0.00,VWS V14.01,2013-06-17 03:02:00,
2013-06-16 22:12:00,85.9,70.9,30.04,NW,307,0.0,3.0,61,0.00,,FEW070,0.00,VWS V14.01,2013-06-17 03:12:00,
2013-06-16 22:22:00,85.7,71.7,30.05,NNW,329,0.0,4.0,63,0.00,,FEW070,0.00,VWS V14.01,2013-06-17 03:22:00,
2013-06-16 22:32:00,85.3,71.8,30.06,WNW,288,0.0,3.0,64,0.00,,FEW070,0.00,VWS V14.01,2013-06-17 03:32:00,
2013-06-16 22:42:00,84.7,72.1,30.06,NW,311,0.0,3.0,66,0.00,,FEW070,0.00,VWS V14.01,2013-06-17 03:42:00,
2013-06-16 22:52:00,84.3,72.2,30.07,NE,34,0.0,3.0,67,0.00,,FEW070,0.00,VWS V14.01,2013-06-17 03:52:00,
2013-06-16 23:02:00,83.8,72.1,30.07,NNE,12,0.0,3.0,68,0.00,,FEW070,0.00,VWS V14.01,2013-06-17 04:02:00,
2013-06-16 23:12:00,83.4,72.2,30.07,NNW,330,0.0,2.0,69,0.00,,FEW070,0.00,VWS V14.01,2013-06-17 04:12:00,
2013-06-16 23:22:00,83.0,72.2,30.07,NW,314,0.0,1.0,70,0.00,,FEW070,0.00,VWS V14.01,2013-06-17 04:22:00,
2013-06-16 23:32:00,82.8,72.4,30.07,NW,319,1.0,3.0,71,0.00,,FEW070,0.00,VWS V14.01,2013-06-17 04:32:00,
2013-06-16 23:42:00,82.4,72.1,30.07,NW,321,0.0,1.0,71,0.00,,FEW070,0.00,VWS V14.01,2013-06-17 04:42:00,
2013-06-16 23:52:00,82.2,72.3,30.07,NW,322,0.0,1.0,72,0.00,,FEW070,0.00,VWS V14.01,2013-06-17 04:52:00,